Hourly Weather Taba

Today, 3 December, Thursday

Time Temperature Precipitation Wind Pressure Humidity
00:00 +10°C° 0 mm 1 mps 693 mmHg 66%
01:00 +10°C° 0 mm 1 mps 693 mmHg 70%
02:00 +9°C° 0 mm 1 mps 692 mmHg 77%
03:00 +9°C° 0 mm 1 mps 692 mmHg 79%
04:00 +9°C° 0 mm 1 mps 692 mmHg 80%
05:00 +8°C° 0 mm 1 mps 692 mmHg 81%
06:00 +10°C° 0 mm 1 mps 693 mmHg 73%
07:00 +12°C° 0 mm 1 mps 693 mmHg 65%
08:00 +14°C° 0 mm 1 mps 694 mmHg 57%
09:00 +15°C° 0 mm 1 mps 694 mmHg 51%
10:00 +16°C° 0 mm 1 mps 694 mmHg 44%
11:00 +19°C° 0 mm 1 mps 694 mmHg 38%
12:00 +19°C° 0 mm 1 mps 694 mmHg 35%
13:00 +20°C° 0 mm 1 mps 693 mmHg 32%
14:00 +20°C° 0 mm 1 mps 693 mmHg 29%
15:00 +19°C° 0 mm 1 mps 693 mmHg 33%
16:00 +16°C° 0 mm 1 mps 693 mmHg 38%
17:00 +14°C° 0 mm 1 mps 692 mmHg 43%
18:00 +13°C° 0 mm 1 mps 692 mmHg 49%
19:00 +13°C° 0 mm 1 mps 692 mmHg 55%
20:00 +12°C° 0 mm 1 mps 692 mmHg 61%
21:00 +11°C° 0 mm 1 mps 692 mmHg 64%
22:00 +11°C° 0 mm 1 mps 692 mmHg 67%
23:00 +10°C° 0 mm 1 mps 692 mmHg 70%

Tomorrow, 4 December, Friday

Time Temperature Precipitation Wind Pressure Humidity
00:00 +10°C° 0 mm 1 mps 692 mmHg 72%
01:00 +10°C° 0 mm 1 mps 691 mmHg 74%
02:00 +9°C° 0 mm 1 mps 691 mmHg 76%
03:00 +9°C° 0 mm 1 mps 691 mmHg 77%
04:00 +9°C° 0 mm 1 mps 691 mmHg 77%
05:00 +8°C° 0 mm 1 mps 691 mmHg 78%
06:00 +10°C° 0 mm 1 mps 692 mmHg 70%
07:00 +12°C° 0 mm 1 mps 692 mmHg 61%
08:00 +14°C° 0 mm 1 mps 693 mmHg 53%
09:00 +15°C° 0 mm 1 mps 693 mmHg 47%
10:00 +16°C° 0 mm 1 mps 693 mmHg 41%
11:00 +17°C° 0 mm 0 mps 694 mmHg 36%
12:00 +19°C° 0 mm 1 mps 693 mmHg 33%
13:00 +20°C° 0 mm 1 mps 693 mmHg 30%
14:00 +20°C° 0 mm 1 mps 692 mmHg 27%
15:00 +19°C° 0 mm 1 mps 692 mmHg 32%
16:00 +16°C° 0 mm 1 mps 692 mmHg 38%
17:00 +14°C° 0 mm 2 mps 692 mmHg 43%
18:00 +14°C° 0 mm 1 mps 692 mmHg 47%
19:00 +13°C° 0 mm 1 mps 692 mmHg 50%
20:00 +13°C° 0 mm 1 mps 692 mmHg 54%
21:00 +12°C° 0 mm 1 mps 692 mmHg 58%
22:00 +12°C° 0 mm 1 mps 692 mmHg 62%
23:00 +11°C° 0 mm 1 mps 692 mmHg 66%

Day after tomorrow, 5 December, Saturday

Time Temperature Precipitation Wind Pressure Humidity
00:00 +11°C° 0 mm 1 mps 692 mmHg 67%
01:00 +11°C° 0 mm 1 mps 691 mmHg 68%
02:00 +11°C° 0 mm 1 mps 691 mmHg 68%
03:00 +11°C° 0 mm 1 mps 691 mmHg 70%
04:00 +10°C° 0 mm 1 mps 691 mmHg 71%
05:00 +9°C° 0 mm 2 mps 691 mmHg 72%
06:00 +11°C° 0 mm 1 mps 692 mmHg 66%
07:00 +12°C° 0 mm 1 mps 692 mmHg 60%
08:00 +13°C° 0 mm 1 mps 692 mmHg 54%
09:00 +15°C° 0 mm 2 mps 692 mmHg 47%
10:00 +16°C° 0 mm 2 mps 693 mmHg 41%
11:00 +17°C° 0 mm 3 mps 693 mmHg 35%
12:00 +17°C° 0 mm 3 mps 692 mmHg 33%
13:00 +18°C° 0 mm 4 mps 692 mmHg 31%
14:00 +18°C° 0 mm 4 mps 692 mmHg 29%
15:00 +17°C° 0 mm 4 mps 692 mmHg 32%
16:00 +15°C° 0 mm 4 mps 692 mmHg 35%
17:00 +13°C° 0 mm 4 mps 692 mmHg 38%
18:00 +13°C° 0 mm 4 mps 692 mmHg 42%
19:00 +12°C° 0 mm 3 mps 692 mmHg 45%
20:00 +11°C° 0 mm 3 mps 693 mmHg 48%
21:00 +10°C° 0 mm 3 mps 693 mmHg 53%
22:00 +10°C° 0 mm 2 mps 693 mmHg 57%
23:00 +9°C° 0 mm 2 mps 693 mmHg 62%

6 December, Sunday

Time Temperature Precipitation Wind Pressure Humidity
00:00 +8°C° 0 mm 2 mps 692 mmHg 66%
01:00 +9°C° 0 mm 1 mps 692 mmHg 70%
02:00 +8°C° 0 mm 1 mps 692 mmHg 74%
03:00 +8°C° 0 mm 1 mps 692 mmHg 76%
04:00 +7°C° 0 mm 1 mps 692 mmHg 77%
05:00 +7°C° 0 mm 1 mps 692 mmHg 79%
06:00 +9°C° 0 mm 1 mps 693 mmHg 70%
07:00 +10°C° 0 mm 1 mps 693 mmHg 62%
08:00 +12°C° 0 mm 1 mps 694 mmHg 53%
09:00 +13°C° 0 mm 1 mps 694 mmHg 48%
10:00 +14°C° 0 mm 1 mps 694 mmHg 42%
11:00 +16°C° 0 mm 1 mps 694 mmHg 37%
12:00 +16°C° 0 mm 1 mps 693 mmHg 34%
13:00 +18°C° 0 mm 1 mps 693 mmHg 31%
14:00 +18°C° 0 mm 1 mps 693 mmHg 28%
15:00 +16°C° 0 mm 1 mps 693 mmHg 33%
16:00 +15°C° 0 mm 2 mps 693 mmHg 37%
17:00 +13°C° 0 mm 2 mps 693 mmHg 41%
18:00 +12°C° 0 mm 2 mps 693 mmHg 46%
19:00 +11°C° 0 mm 1 mps 693 mmHg 50%
20:00 +10°C° 0 mm 1 mps 693 mmHg 54%
21:00 +10°C° 0 mm 1 mps 693 mmHg 57%
22:00 +9°C° 0 mm 1 mps 693 mmHg 59%
23:00 +9°C° 0 mm 1 mps 693 mmHg 62%

7 December, Monday

Time Temperature Precipitation Wind Pressure Humidity
00:00 +9°C° 0 mm 1 mps 693 mmHg 64%
01:00 +8°C° 0 mm 1 mps 693 mmHg 65%
02:00 +7°C° 0 mm 0 mps 692 mmHg 67%
03:00 +8°C° 0 mm 1 mps 693 mmHg 67%
04:00 +7°C° 0 mm 1 mps 693 mmHg 67%
05:00 +7°C° 0 mm 1 mps 693 mmHg 68%
06:00 +9°C° 0 mm 1 mps 693 mmHg 58%
07:00 +11°C° 0 mm 1 mps 694 mmHg 49%
08:00 +13°C° 0 mm 1 mps 695 mmHg 40%
09:00 +15°C° 0 mm 1 mps 695 mmHg 35%
10:00 +17°C° 0 mm 2 mps 695 mmHg 29%
11:00 +18°C° 0 mm 2 mps 695 mmHg 24%
12:00 +19°C° 0 mm 2 mps 695 mmHg 22%
13:00 +20°C° 0 mm 2 mps 695 mmHg 20%
14:00 +21°C° 0 mm 2 mps 694 mmHg 18%
15:00 +19°C° 0 mm 1 mps 694 mmHg 24%
16:00 +16°C° 0 mm 1 mps 694 mmHg 30%
17:00 +14°C° 0 mm 1 mps 693 mmHg 36%
18:00 +13°C° 0 mm 1 mps 694 mmHg 38%
19:00 +13°C° 0 mm 1 mps 694 mmHg 40%
20:00 +12°C° 0 mm 1 mps 694 mmHg 42%
21:00 +12°C° 0 mm 1 mps 694 mmHg 43%
22:00 +12°C° 0 mm 1 mps 694 mmHg 44%
23:00 +12°C° 0 mm 1 mps 694 mmHg 46%

8 December, Tuesday

Time Temperature Precipitation Wind Pressure Humidity
00:00 +12°C° 0 mm 1 mps 694 mmHg 46%
01:00 +12°C° 0 mm 1 mps 694 mmHg 47%
02:00 +12°C° 0 mm 1 mps 694 mmHg 47%
03:00 +11°C° 0 mm 1 mps 694 mmHg 48%
04:00 +11°C° 0 mm 1 mps 694 mmHg 49%
05:00 +11°C° 0 mm 1 mps 694 mmHg 51%
06:00 +13°C° 0 mm 1 mps 694 mmHg 44%
07:00 +15°C° 0 mm 1 mps 695 mmHg 38%
08:00 +16°C° 0 mm 1 mps 696 mmHg 31%
09:00 +18°C° 0 mm 2 mps 696 mmHg 28%
10:00 +20°C° 0 mm 2 mps 696 mmHg 25%
11:00 +23°C° 0 mm 2 mps 696 mmHg 21%
12:00 +24°C° 0 mm 2 mps 695 mmHg 20%
13:00 +24°C° 0 mm 2 mps 695 mmHg 20%
14:00 +25°C° 0 mm 2 mps 695 mmHg 19%
15:00 +21°C° 0 mm 2 mps 694 mmHg 23%
16:00 +20°C° 0 mm 1 mps 694 mmHg 28%
17:00 +16°C° 0 mm 1 mps 694 mmHg 32%
18:00 +15°C° 0 mm 1 mps 694 mmHg 34%
19:00 +14°C° 0 mm 0 mps 694 mmHg 36%
20:00 +13°C° 0 mm 0 mps 694 mmHg 38%
21:00 +13°C° 0 mm 0 mps 694 mmHg 39%
22:00 +12°C° 0 mm 0 mps 694 mmHg 41%
23:00 +13°C° 0 mm 1 mps 694 mmHg 42%
Show more